map of HND home
Great Circle Mapper logo
HND - Airport
Location
City:  Tokyo, Tokyo, Japan
Name:Haneda
ICAO:RJTT
IATA:HND

Details
Type:Airport (Aerodrome, Airfield)
Use:Public/Civil, International (customs port of entry)
Latitude:35°33'12"N (35.553333)
Longitude:139°46'52"E (139.781111)
Elevation:21 ft (6 m)
Variation:7.34°W (WMM2015 magnetic declination)
-0.06° annual change
Runways:4
Longest:9843 × 197 ft (3000 × 60 m), paved

Time
Time Zone:UTC+9
Local Time:

Weather
METAR:RJTT 240600Z 10011KT 9999 FEW030 27/21 Q1014 NOSIG RMK 1CU030 A2995
TAF:RJTT 240506Z 2406/2512 12010KT 9999 FEW020 BKN040
BECMG 2415/2417 04008KT
BECMG 2500/2503 18008KT

Related Locations
Nearby:
Farthest:SNPV: 11755 mi / 18917 km
Mostardas [Solidão], RS, BR

Find:

   beyond  
but within

Other Information
Maps:
NOTAMs:
Links:
Sources:

  
flag of Japan
flag of Tokyo
  

Airport Diagram

Airport diagram for HND

Airport diagram (OBSOLETE) from NGA

Sectional Chart

Flight Planning
at skyvector.com

Satellite Image

Google Maps Satellite view

 

Copyright © 2004-2016 Karl L. Swartz. All rights reserved.
The Great Circle Mapper name and logo are trademarks of the Great Circle Mapper.
All other trademarks mentioned herein belong to their respective owners.
Please see credits for attibutions and further copyright information.

  Follow gcmap on Facebook Follow gcmap on Twitter Follow gcmap on Google+ GCmap on LinkedIn

hCard Microformat

Geo Microformat